Preview of NWS' New Version of Forecast
This preview is not operational and should not be used for support decisions.

Regional Weather Roundup (RWR)

Issued by Gray - Portland, ME (GYX)

                            
142 
ASUS41 KGYX 251210
RWRGYX
WEATHER ROUNDUP FOR MAINE AND NEW HAMPSHIRE
NATIONAL WEATHER SERVICE GRAY ME
800 AM EDT FRI MAY 25 2018

MEZ002-005-006-010-012-015-018-020-021-024-026-027-029-251300-
MAINE
  
CITY           SKY/WX    TMP DP  RH WIND       PRES   REMARKS
PORTLAND       FAIR      69  50  50 VRB7G20   29.83F                  
6HR MIN TEMP:  50; 6HR MAX TEMP:  69;                                

SANFORD        FAIR      69  49  48 W12       29.88F                  
BAR HARBOR     FAIR      57  50  77 SW14      29.74F                  
WISCASSET      FAIR      64  51  62 VRB3      29.81F                  
6HR MIN TEMP:  49; 6HR MAX TEMP:  64;                                

ROCKLAND       FAIR      61  51  70 W8        29.78F                  
FRYEBURG       FAIR      72  46  39 SW9G18    29.83F                  
6HR MIN TEMP:  45; 6HR MAX TEMP:  72;                                

LEWISTONAUBURN FAIR      69  49  48 SW10      29.80F                  
AUGUSTA        FAIR      63  47  55 SW8G17    29.79F                  
6HR MIN TEMP:  47; 6HR MAX TEMP:  63;                                

WATERVILLE     FAIR      59  50  72 S5        29.74F                  
BANGOR         FAIR      66  48  52 SW7       29.72F                  
6HR MIN TEMP:  50; 6HR MAX TEMP:  66;                                

GREENVILLE       N/A     68  48  48 VRB5      29.69F                  
6HR MIN TEMP:  46; 6HR MAX TEMP:  68;                                

MILLINOCKET    FAIR      59  47  64 CALM      29.69F                  
6HR MIN TEMP:  50; 6HR MAX TEMP:  59;                                

HOULTON        FAIR      53  48  83 S5        29.68S                  
6HR MIN TEMP:  48; 6HR MAX TEMP:  53; 6HR PCP:  0.02;                

PRESQUE ISLE   CLOUDY    50  48  93 S6        29.66F                  
6HR MIN TEMP:  47; 6HR MAX TEMP:  50; 6HR PCP:  0.03;                

FRENCHVILLE    RAIN      48  45  89 SW7       29.65R FOG              
6HR MIN TEMP:  48; 6HR MAX TEMP:  48; 6HR PCP:  0.34;                

CARIBOU        LGT RAIN  49  46  90 S8        29.64F                  
6HR MIN TEMP:  48; 6HR MAX TEMP:  49; 6HR PCP:  0.11;                

$$

NHZ002-005-008-009-011-012-014-251300-
NEW HAMPSHIRE
  
CITY           SKY/WX    TMP DP  RH WIND       PRES   REMARKS
PORTSMOUTH     MOSUNNY   64  52  65 SW3       29.88S                  
ROCHESTER      FAIR      68  51  54 VRB3      29.88F                  
6HR MIN TEMP:  50; 6HR MAX TEMP:  68;                                

NASHUA         FAIR      67  52  58 VRB3      29.94S                  
MANCHESTER     FAIR      69  50  50 SW7       29.91S                  
6HR MIN TEMP:  58; 6HR MAX TEMP:  69;                                

CONCORD        FAIR      65  51  60 E5        29.90F                  
6HR MIN TEMP:  46; 6HR MAX TEMP:  65;                                

LACONIA        FAIR      65  50  58 SW5       29.89F                  
PLYMOUTH       FAIR      50  46  87 CALM      29.90F                  
BERLIN         FAIR      69  46  43 CALM      29.83F                  
6HR MIN TEMP:  37; 6HR MAX TEMP:  69;                                

WHITEFIELD     FAIR      62  51  67 CALM      29.87F                  
6HR MIN TEMP:  37; 6HR MAX TEMP:  62;                                

JAFFREY        FAIR      59  50  72 S9        29.98F                  
6HR MIN TEMP:  53; 6HR MAX TEMP:  59;                                

KEENE          FAIR      59  53  80 CALM      29.98F                  
LEBANON        FAIR      59  49  69 CALM      29.91F                  
6HR MIN TEMP:  45; 6HR MAX TEMP:  59;                                

MT WASHINGTON  MOSUNNY   43  37  81 W69G79      N/A                   
6HR MIN TEMP:  42; 6HR MAX TEMP:  45;                                

$$

VTZ005-007-008-251300-
VERMONT
  
CITY           SKY/WX    TMP DP  RH WIND       PRES   REMARKS
ST JOHNSBURY     N/A     52  44  74 MISG      29.85F                  
MONTPELIER     FAIR      68  47  46 W10G16    29.92F                  
BURLINGTON     PTSUNNY   67  48  50 S13       29.87F                  
$$

MAZ007-012-024-CTZ003-RIZ002-NYZ038-NYZ072-251300-
SOUTHERN NEW ENGLAND AND NY
  
CITY           SKY/WX    TMP DP  RH WIND       PRES   REMARKS
BOSTON         FAIR      69  47  45 W16G23    29.94F                  
WORCESTER      FAIR      62  48  60 W9        29.99F                  
NANTUCKET      FAIR      57  54  89 SW17      30.01F                  
PROVIDENCE     FAIR      64  51  62 W10       29.99F                  
HARTFORD       FAIR      60  52  74 S3        30.00F                  
ALBANY         FAIR      63  50  62 S5        30.00S                  
NEW YORK CITY  FAIR      73  51  46 SW8       30.03F                  
$$

ANZ081-ANZ082-ANZ150-NHZ014-MEZ023>029-251300-
COASTAL MARINE OBSERVATIONS
  
STATION/POSITION TIME  TEMP    WIND        PRES    WAVE
                       AIR SEA DIR/SP/G            HT/PER
                 (UTC) (F)     (DEG/KT/KT) (MB)    (FT/S)
MOUNT DESERT ROC 1200   51     220/ 24/ 25 1008.3F
MATINICUS ROCK   1200   54     230/ 23/ 25 1008.6F
ISLE OF SHOALS   1200   62     250/ 19/ 20 1011.6F
JEFFREYS LEDGE   1136      52                N/A     4/ 5
CASHES LEDGE BUO 1150   57 51              1010.6F   6/ 6
$$

.............KEY..............
   WCI - WIND CHILL
   TC  - TEMPERATURE IN CELSIUS
   VSB - VISIBILITY IN MILES
   HX  - HEAT INDEX
   FAIR- INDICATES FEW OR NO CLOUDS BELOW 12,000 FT, WITH NO 
         SIGNIFICANT WEATHER AND/OR OBSTRUCTIONS TO VISIBILITY.